Weather History for Big Rapids, MI

Change the Weather History Date:

Saturday, October 25, 2014

  Actual Average Record
Temperature  
Mean Temperature 52 °F -  
Max Temperature 63 °F 55 °F 77 °F (2012)
Min Temperature 41 °F 35 °F 23 °F (2002)
Degree Days  
Heating Degree Days 13    
Growing Degree Days 2 (Base 50)    
Moisture  
Dew Point 44 °F    
Average Humidity 73    
Maximum Humidity 100    
Minimum Humidity 35    
Precipitation  
Precipitation 0.00 in - - ()
Sea Level Pressure  
Sea Level Pressure 29.81 in    
Wind  
Wind Speed 7 mph (West)    
Max Wind Speed 24 mph    
Max Gust Speed 32 mph    
Visibility 7 miles    
Events Fog    
Averages and records for this station are not official NWS values.
T = Trace of Precipitation, MM = Missing Value Source: NWS Daily Summary

Daily Weather History Graph

Daily Weather History Graph

Search for Another Location

Airport:

Trip Planner

Search our weather history database for the weather conditions in past years. The results will help you decide how hot, cold, wet, or windy it might be!

Date:

Astronomy

Oct. 25, 2014 Rise Set
Actual Time 8:08 AM EDT 6:42 PM EDT
Civil Twilight 7:39 AM EDT 7:12 PM EDT
Nautical Twilight 7:05 AM EDT 7:45 PM EDT
Astronomical Twilight 6:32 AM EDT 8:18 PM EDT
Moon 9:49 AM EDT (10/25) 8:02 PM EDT (10/25)
Length of Visible Light 11h 32m
Length of Day
10h 33m
Waxing Crescent, 3% of the Moon is Illuminated
Oct 25
Waxing Crescent
Oct 30
First Quarter
Nov 6
Full
Nov 14
Last Quarter
Nov 22
New

Hourly Weather History & Observations

Time (EDT) Temp. Windchill Dew Point Humidity Pressure Visibility Wind Dir Wind Speed Gust Speed Precip Events Conditions
12:14 AM 46.0 °F - 46.0 °F 100% 29.91 in 2.0 mi Calm Calm - N/A   Scattered Clouds
12:35 AM 44.2 °F - 44.2 °F 100% 29.91 in 1.5 mi Calm Calm - N/A   Scattered Clouds
12:54 AM 43.0 °F - 43.0 °F 100% 29.90 in 0.2 mi Calm Calm - N/A Fog Fog
1:15 AM 43.7 °F - 43.7 °F 100% 29.90 in 0.2 mi Calm Calm - N/A Fog Fog
1:35 AM 42.6 °F - 42.6 °F 100% 29.87 in 0.2 mi Calm Calm - N/A Fog Fog
1:54 AM 41.9 °F - 41.9 °F 100% 29.87 in 0.5 mi Calm Calm - N/A Fog Fog
2:15 AM 43.7 °F 41.1 °F 43.7 °F 100% 29.85 in 0.2 mi SSE 4.6 mph - N/A Fog Fog
2:35 AM 44.6 °F 42.2 °F 44.6 °F 100% 29.85 in 0.2 mi SSE 4.6 mph - N/A Fog Fog
2:54 AM 44.1 °F 42.5 °F 44.1 °F 100% 29.84 in 0.2 mi SSE 3.5 mph - N/A Fog Fog
3:15 AM 44.4 °F - 44.4 °F 100% 29.84 in 0.8 mi Calm Calm - N/A   Overcast
3:35 AM 45.9 °F 44.6 °F 45.9 °F 100% 29.82 in 2.5 mi SSE 3.5 mph - N/A   Overcast
3:54 AM 46.4 °F - 46.4 °F 100% 29.82 in 3.0 mi Calm Calm - N/A   Overcast
4:15 AM 50.0 °F - 50.0 °F 100% 29.81 in 7.0 mi WSW 5.8 mph - N/A   Overcast
4:35 AM 51.8 °F - 51.8 °F 100% 29.82 in 7.0 mi WSW 5.8 mph - N/A   Overcast
4:54 AM 51.8 °F - 51.8 °F 100% 29.81 in 7.0 mi WSW 5.8 mph - N/A   Overcast
5:15 AM 51.4 °F - 51.4 °F 100% 29.81 in 7.0 mi WSW 6.9 mph - N/A   Overcast
5:34 AM 52.0 °F - 52.0 °F 100% 29.81 in 7.0 mi West 5.8 mph - N/A   Overcast
5:54 AM 52.5 °F - 52.5 °F 100% 29.80 in 7.0 mi WSW 5.8 mph - N/A   Overcast
6:15 AM 52.9 °F - 52.9 °F 100% 29.80 in 7.0 mi WSW 6.9 mph - N/A   Overcast
6:34 AM 53.1 °F - 53.1 °F 100% 29.80 in 7.0 mi WSW 5.8 mph - N/A   Overcast
6:54 AM 53.2 °F - 53.2 °F 100% 29.80 in 7.0 mi West 4.6 mph - N/A   Overcast
7:15 AM 54.0 °F - 54.0 °F 100% 29.80 in 7.0 mi West 8.1 mph - N/A   Overcast
7:34 AM 53.6 °F - 53.6 °F 100% 29.79 in 5.0 mi West 9.2 mph - N/A   Overcast
7:54 AM 53.6 °F - 53.6 °F 100% 29.80 in 5.0 mi West 6.9 mph - N/A   Overcast
8:15 AM 53.8 °F - 53.8 °F 100% 29.80 in 4.0 mi West 6.9 mph - N/A   Overcast
8:34 AM 54.0 °F - 54.0 °F 100% 29.80 in 4.0 mi West 6.9 mph - N/A   Overcast
8:55 AM 54.5 °F - 54.5 °F 100% 29.80 in 4.0 mi West 6.9 mph - N/A   Overcast
9:15 AM 54.7 °F - 54.7 °F 100% 29.80 in 4.0 mi West 8.1 mph - N/A   Overcast
9:34 AM 55.4 °F - 55.4 °F 100% 29.81 in 5.0 mi West 8.1 mph - N/A   Overcast
9:55 AM 56.3 °F - 55.4 °F 97% 29.80 in 7.0 mi WNW 8.1 mph - N/A   Overcast
10:15 AM 57.0 °F - 54.9 °F 92% 29.81 in 7.0 mi WNW 11.5 mph 17.3 mph N/A   Overcast
10:34 AM 58.1 °F - 54.7 °F 88% 29.80 in 10.0 mi WNW 11.5 mph 16.1 mph N/A   Mostly Cloudy
10:55 AM 59.0 °F - 54.0 °F 83% 29.79 in 10.0 mi West 13.8 mph 25.3 mph N/A   Scattered Clouds
11:15 AM 60.1 °F - 52.7 °F 77% 29.79 in 10.0 mi WNW 12.7 mph 19.6 mph N/A   Clear
11:34 AM 60.8 °F - 50.9 °F 70% 29.79 in 10.0 mi WNW 15.0 mph 24.2 mph N/A   Clear
11:55 AM 61.3 °F - 50.4 °F 67% 29.79 in 10.0 mi West 17.3 mph 27.6 mph N/A   Clear
12:15 PM 62.1 °F - 49.5 °F 63% 29.79 in 10.0 mi WNW 13.8 mph 26.5 mph N/A   Clear
12:34 PM 62.8 °F - 45.9 °F 54% 29.78 in 10.0 mi West 15.0 mph 21.9 mph N/A   Clear
12:55 PM 63.5 °F - 42.1 °F 46% 29.78 in 10.0 mi West 19.6 mph 27.6 mph N/A   Clear
1:15 PM 63.7 °F - 38.7 °F 40% 29.77 in 10.0 mi West 19.6 mph 27.6 mph N/A   Clear
1:34 PM 63.7 °F - 35.6 °F 35% 29.77 in 10.0 mi WNW 16.1 mph 31.1 mph N/A   Clear
1:55 PM 63.5 °F - 37.9 °F 39% 29.76 in 10.0 mi West 19.6 mph 28.8 mph N/A   Clear
2:15 PM 63.1 °F - 40.1 °F 43% 29.76 in 10.0 mi West 24.2 mph 27.6 mph N/A   Clear
2:34 PM 63.0 °F - 41.0 °F 45% 29.76 in 10.0 mi WNW 16.1 mph 28.8 mph N/A   Clear
2:55 PM 62.8 °F - 40.5 °F 44% 29.76 in 10.0 mi West 23.0 mph 29.9 mph N/A   Clear
3:15 PM 62.1 °F - 37.6 °F 40% 29.76 in 10.0 mi West 20.7 mph 32.2 mph N/A   Clear
3:34 PM 62.1 °F - 38.1 °F 41% 29.76 in 10.0 mi West 23.0 mph 28.8 mph N/A   Clear
3:55 PM 61.3 °F - 37.0 °F 40% 29.77 in 10.0 mi WNW 18.4 mph 31.1 mph N/A   Clear
4:14 PM 61.3 °F - 38.5 °F 43% 29.77 in 10.0 mi West 19.6 mph 27.6 mph N/A   Clear
4:34 PM 61.3 °F - 38.3 °F 43% 29.77 in 10.0 mi West 20.7 mph 27.6 mph N/A   Clear
4:55 PM 61.0 °F - 36.5 °F 40% 29.78 in 10.0 mi WNW 15.0 mph 29.9 mph N/A   Clear
5:14 PM 61.0 °F - 36.3 °F 40% 29.78 in 10.0 mi WNW 19.6 mph 27.6 mph N/A   Clear
5:34 PM 60.3 °F - 35.4 °F 39% 29.78 in 10.0 mi WNW 15.0 mph 29.9 mph N/A   Clear
5:55 PM 60.1 °F - 35.4 °F 40% 29.78 in 10.0 mi West 16.1 mph 27.6 mph N/A   Clear
6:14 PM 59.2 °F - 35.8 °F 42% 29.78 in 10.0 mi West 11.5 mph 24.2 mph N/A   Clear
6:34 PM 58.3 °F - 35.6 °F 43% 29.78 in 10.0 mi West 8.1 mph - N/A   Clear
6:55 PM 56.5 °F - 36.5 °F 47% 29.78 in 10.0 mi West 9.2 mph - N/A   Clear
7:14 PM 55.6 °F - 37.2 °F 50% 29.79 in 10.0 mi West 9.2 mph - N/A   Clear
7:35 PM 55.4 °F - 37.8 °F 52% 29.79 in 10.0 mi West 10.4 mph - N/A   Clear
7:55 PM 54.9 °F - 38.3 °F 54% 29.79 in 10.0 mi West 9.2 mph 24.2 mph N/A   Clear
8:14 PM 54.3 °F - 38.3 °F 55% 29.80 in 10.0 mi WNW 8.1 mph - N/A   Clear
8:35 PM 53.4 °F - 38.5 °F 57% 29.80 in 10.0 mi West 8.1 mph - N/A   Clear
8:54 PM 52.9 °F - 38.7 °F 58% 29.80 in 10.0 mi West 8.1 mph - N/A   Clear
9:14 PM 53.2 °F - 38.3 °F 57% 29.81 in 10.0 mi WNW 8.1 mph - N/A   Clear
9:35 PM 52.7 °F - 38.3 °F 58% 29.81 in 10.0 mi WNW 6.9 mph - N/A   Clear
9:54 PM 53.1 °F - 37.8 °F 56% 29.82 in 10.0 mi WNW 8.1 mph - N/A   Clear
10:14 PM 53.2 °F - 37.0 °F 54% 29.82 in 10.0 mi WNW 10.4 mph - N/A   Clear
10:35 PM 53.1 °F - 36.9 °F 54% 29.82 in 10.0 mi WNW 12.7 mph 17.3 mph N/A   Clear
10:54 PM 52.7 °F - 36.7 °F 55% 29.83 in 10.0 mi WNW 11.5 mph 17.3 mph N/A   Clear
11:14 PM 52.7 °F - 36.7 °F 55% 29.84 in 10.0 mi WNW 9.2 mph 17.3 mph N/A   Clear
11:35 PM 51.4 °F - 36.7 °F 57% 29.85 in 10.0 mi WNW 6.9 mph - N/A   Clear
11:54 PM 50.5 °F - 36.5 °F 59% 29.86 in 10.0 mi WNW 4.6 mph - N/A   Clear